RH
22 21 17 14 13 12 12 11 11 10 11 15 19 23 22 23 26 27 29 30 34 39 45 47 51 58 59
35 32 29 26 22 19 17 15 13 12 11 13 16 18 20 18 18 22 25 26 27 29 31 34 34 37 41
48 45 42 40 38 35 33 32 30 28 25 23 22 21 20 17 15 15 17 20 21 23 24 26 28 28 29
43 43 42 39 37 35 33 30 29 27 25 23 22 21 20 18 17 18 17 16 16 16 17 18 19 20 20
42 41 41 41 38 36 34 33 31 32 32 30 26 24 23 22 22 21 21 22 22 21 20 19 20 19 19
44 43 44 43 42 40 40 39 38 38 35 33 32 28 26 24 22 21 22 23 22 21 22 23 21 21 21
44 47 49 51 48 47 46 45 42 39 37 36 34 33 30 28 26 25 24 24 24 24 23 23 25 26 25
52 52 53 53 51 51 49 47 45 44 41 38 37 35 33 32 30 29 28 28 27 28 27 27 27 30 31
50 50 51 52 52 51 51 49 47 46 43 38 36 34 35 35 34 32 30 30 30 31 31 34 37 36 36
50 52 50 50 50 49 50 48 48 45 41 38 36 37 37 39 38 38 34 33 33 34 34 35 40 43 46
52 51 51 52 53 52 51 50 47 44 41 39 36 37 40 41 43 42 39 36 37 39 41 44 47 47 50
61 60 58 56 56 54 53 53 51 49 47 45 42 43 46 46 47 52 48 44 42 45 47 49 50 52 58
60 59 59 59 58 58 57 58 59 59 56 55 52 51 53 60 64 65 63 56 53 58 56 58 58 63 67
58 59 60 59 58 62 64 63 61 63 65 65 65 64 65 71 69 70 72 69 63 62 65 67 63 72 80
60 58 56 57 61 64 66 66 64 68 72 74 75 75 77 81 83 83 81 84 82 76 78 80 85 87 87
55 52 49 52 58 63 64 65 70 73 75 79 80 80 83 87 89 88 86 89 86 85 85 86 88 90 87
56 55 56 57 56 56 61 65 68 74 77 82 83 83 85 88 91 92 93 94 93 93 94 92 89 89 90